Temperature
6 6 6 6 6 5 5 5 5 5 5 5 5 5 5 5 5 5 5 5 4 4 4 4 4 4 4 4 4 3 3 3 2 3 3 3 3 3 3 3 3 3 3
6 6 6 6 5 5 5 5 4 4 4 4 4 4 4 4 4 4 4 4 4 4 4 4 4 4 4 3 3 3 3 2 2 2 3 3 2 2 2 2 2 2 2
6 6 6 5 5 5 5 4 4 4 4 4 4 4 4 4 4 4 4 4 4 4 3 3 3 3 3 3 3 3 2 2 2 1 2 2 2 2 2 2 2 1 1
5 5 5 5 5 4 4 4 4 4 4 4 4 4 4 3 3 3 3 3 3 3 3 3 3 3 3 2 2 2 2 1 1 1 1 1 1 1 1 1 1 1 1
5 4 4 4 4 4 4 3 3 3 3 3 3 3 3 3 3 3 3 3 3 3 3 3 2 2 2 2 2 1 1 1 1 0 0 1 1 0 0 0 -0 0 0
4 4 4 4 4 3 3 3 3 3 3 3 3 3 3 3 3 3 2 2 2 2 2 2 2 2 2 1 1 1 1 0 0 -0 -0 -0 -0 -0 -0 -1 -1 -1 -1
4 3 3 3 3 3 3 3 3 2 2 2 2 2 2 2 2 2 2 2 2 2 2 2 2 1 1 1 1 0 0 -0 -0 -1 -1 -1 -1 -1 -1 -1 -1 -1 -2
3 3 3 3 3 2 2 2 2 2 2 2 2 2 2 2 2 2 1 1 1 1 1 1 1 1 1 0 0 0 0 -0 -0 -1 -1 -1 -1 -1 -2 -2 -2 -2 -2
3 3 2 2 2 2 2 2 2 1 1 1 1 1 1 1 1 1 1 1 1 1 1 1 0 0 0 -0 -0 -0 -0 -0 -1 -1 -1 -1 -2 -2 -2 -2 -2 -3 -3
2 2 2 2 1 1 1 1 1 1 1 1 1 1 1 1 1 1 1 0 1 1 0 0 0 -0 -0 -1 -1 -1 -1 -1 -1 -1 -1 -1 -2 -2 -2 -2 -3 -3 -3
2 2 1 1 1 1 1 1 1 0 0 0 0 0 0 0 0 0 0 -0 -0 -0 -0 -0 -0 -1 -1 -1 -1 -1 -1 -2 -2 -2 -2 -2 -2 -2 -2 -3 -3 -3 -4
1 1 1 1 1 0 0 0 -0 -0 -0 -0 -0 -0 -0 -0 -0 -0 -0 -1 -1 -1 -1 -1 -1 -1 -1 -1 -1 -2 -2 -2 -2 -2 -2 -2 -2 -2 -3 -3 -3 -3 -4
1 1 1 0 0 -0 -0 -0 -1 -1 -1 -1 -1 -1 -0 -1 -1 -1 -1 -1 -1 -1 -1 -1 -1 -1 -2 -2 -2 -2 -2 -2 -3 -3 -3 -3 -3 -3 -3 -3 -3 -4 -4
0 0 0 -0 -0 -0 -1 -1 -1 -1 -1 -1 -1 -1 -1 -1 -1 -1 -1 -1 -1 -2 -2 -2 -2 -2 -2 -2 -2 -2 -3 -3 -3 -3 -3 -3 -3 -3 -3 -4 -4 -4 -4
-0 -0 -0 -0 -1 -1 -1 -1 -1 -1 -1 -1 -1 -1 -2 -1 -1 -2 -2 -2 -2 -2 -2 -2 -2 -2 -3 -3 -3 -3 -3 -3 -3 -3 -4 -4 -4 -4 -4 -4 -4 -4 -5
-1 -1 -1 -1 -1 -1 -1 -1 -1 -2 -2 -2 -2 -2 -2 -2 -2 -2 -2 -2 -2 -3 -3 -3 -3 -3 -3 -3 -3 -3 -4 -4 -4 -4 -4 -4 -4 -4 -4 -4 -5 -5 -5
-1 -1 -1 -1 -1 -2 -2 -2 -2 -2 -2 -2 -2 -2 -2 -2 -2 -3 -3 -3 -3 -3 -3 -3 -3 -3 -3 -4 -4 -4 -4 -4 -4 -4 -4 -4 -4 -5 -5 -5 -5 -5 -5
-1 -1 -2 -2 -2 -2 -2 -2 -2 -2 -2 -2 -2 -3 -3 -3 -3 -3 -3 -3 -3 -3 -3 -3 -4 -4 -4 -4 -4 -4 -4 -4 -4 -4 -4 -4 -5 -5 -5 -5 -5 -5 -6
-2 -2 -2 -2 -2 -2 -2 -2 -2 -3 -3 -3 -3 -3 -3 -3 -3 -3 -3 -4 -4 -4 -4 -4 -4 -4 -4 -4 -4 -4 -4 -4 -4 -4 -5 -5 -5 -5 -5 -5 -5 -6 -6
-2 -2 -2 -2 -2 -2 -3 -3 -3 -3 -3 -3 -3 -3 -3 -3 -3 -3 -4 -4 -4 -4 -4 -4 -4 -4 -5 -5 -5 -5 -5 -5 -5 -5 -5 -5 -5 -5 -5 -5 -5 -6 -6
-3 -3 -3 -3 -3 -3 -3 -3 -3 -3 -3 -3 -3 -3 -4 -4 -4 -4 -4 -4 -4 -4 -4 -4 -5 -5 -5 -5 -5 -5 -5 -5 -5 -5 -5 -5 -5 -5 -6 -6 -6 -6 -6
-3 -3 -3 -3 -3 -3 -3 -3 -3 -4 -4 -4 -4 -4 -4 -4 -4 -4 -4 -4 -4 -4 -5 -5 -5 -5 -5 -5 -5 -6 -5 -5 -5 -5 -5 -5 -6 -6 -6 -6 -6 -6 -6
-4 -4 -3 -4 -4 -4 -4 -4 -4 -4 -4 -4 -4 -4 -4 -4 -4 -4 -4 -4 -5 -5 -5 -5 -5 -5 -5 -6 -6 -6 -6 -6 -6 -6 -6 -6 -6 -6 -6 -6 -6 -7 -7
-4 -4 -4 -4 -4 -4 -4 -4 -4 -4 -4 -4 -4 -4 -4 -4 -5 -5 -5 -5 -5 -5 -5 -5 -5 -5 -5 -6 -6 -6 -6 -6 -6 -6 -6 -6 -6 -6 -6 -6 -7 -7 -7
-4 -5 -5 -5 -5 -5 -5 -5 -5 -5 -5 -4 -5 -5 -5 -5 -5 -5 -5 -5 -5 -5 -5 -5 -5 -5 -6 -6 -6 -6 -6 -6 -6 -6 -6 -7 -7 -7 -7 -7 -7 -7 -7
-5 -5 -5 -5 -5 -5 -5 -5 -5 -5 -5 -5 -5 -5 -5 -5 -5 -5 -5 -5 -5 -5 -5 -5 -6 -6 -6 -6 -6 -6 -6 -6 -6 -6 -7 -7 -7 -7 -7 -7 -7 -7 -7
Wind_Speed
3 3 3 3 3 3 3 3 3 2 3 3 3 2 2 2 3 3 3 3 3 3 2 3 4 3 2 2 2 2 3 3 5 5 3 3 3 4 6 7 8 8 8
2 3 3 3 3 3 3 3 3 3 3 3 3 2 2 3 3 4 4 3 4 4 3 3 4 3 3 3 3 4 4 4 4 7 5 3 4 4 4 5 6 7 7
1 2 2 3 3 3 4 3 3 3 3 3 3 3 3 3 4 4 4 4 4 4 4 5 5 4 4 4 3 4 3 4 3 5 6 4 3 3 3 4 5 4 7
1 2 2 3 3 3 3 3 3 3 3 3 3 4 4 4 4 4 4 4 4 4 5 5 5 6 6 5 4 4 4 4 4 4 5 4 4 3 2 4 5 3 5
2 2 3 2 2 2 2 3 3 3 3 3 3 3 3 4 4 5 5 5 4 4 5 5 6 7 8 6 5 4 4 4 4 4 5 5 4 3 3 3 5 5 4
2 3 2 2 2 2 2 2 2 2 3 3 3 4 4 4 5 7 5 4 4 5 5 5 5 6 7 9 10 9 7 6 5 5 5 6 6 5 4 4 4 4 5
2 2 2 2 2 2 2 2 2 3 2 3 3 4 4 5 7 7 7 4 4 5 5 5 4 5 6 5 8 9 9 10 9 6 6 7 6 5 4 5 4 5 6
3 3 3 3 3 2 2 2 3 2 3 3 4 4 4 5 7 7 7 4 4 5 6 6 5 5 6 5 5 5 6 6 7 6 6 7 6 5 4 4 5 5 5
3 4 3 3 3 3 3 4 3 2 3 3 3 4 4 5 7 7 6 3 4 5 5 5 6 6 8 8 5 5 5 5 8 9 10 9 10 9 6 2 3 4 5
4 4 4 3 4 4 5 4 3 3 4 4 4 4 4 5 7 7 6 3 4 4 4 5 7 7 8 8 5 5 6 6 4 5 6 7 7 8 8 5 4 4 4
3 3 3 3 4 4 4 3 3 3 3 4 4 4 4 5 6 7 6 3 4 4 4 4 5 9 9 9 8 5 8 6 4 4 4 4 4 4 4 4 5 5 5
3 3 3 3 3 3 3 3 3 3 3 4 4 4 4 4 5 6 7 7 5 4 4 4 5 8 9 9 7 7 9 7 3 3 4 4 4 4 4 4 6 7 7
3 3 3 3 3 3 3 3 3 3 3 4 4 4 4 3 4 7 7 8 7 4 4 6 7 8 8 6 7 8 7 4 3 4 5 5 4 4 3 3 3 4 5
4 4 3 3 3 3 3 3 3 4 4 4 4 4 4 3 3 3 3 4 6 5 4 5 7 7 6 6 6 5 4 4 4 5 5 4 3 3 3 3 3 2 2
3 3 3 3 3 3 3 3 4 5 5 5 5 4 4 5 5 6 5 4 3 4 3 2 2 2 3 3 3 3 3 3 4 4 4 4 4 3 3 3 3 2 3
3 3 3 3 3 2 3 4 5 6 7 8 8 7 6 7 8 8 8 8 7 6 4 3 3 4 4 4 4 4 4 4 4 4 4 4 4 4 4 3 3 3 4
4 4 3 3 3 3 3 3 4 4 5 6 7 8 8 8 8 8 8 8 7 6 4 3 4 4 4 4 4 4 4 4 4 4 4 4 4 4 3 3 3 3 4
4 4 4 3 3 3 3 4 3 4 4 4 5 7 8 8 8 8 7 5 4 4 3 4 4 4 4 5 5 4 4 4 3 4 4 4 4 4 3 4 4 4 4
3 3 3 3 3 3 3 3 4 4 4 4 4 5 6 7 7 7 6 3 4 4 4 4 5 4 4 5 4 4 4 4 4 4 4 4 4 4 4 4 3 4 3
4 6 5 4 3 3 3 4 4 4 4 5 5 4 3 3 3 4 3 3 4 5 5 5 5 5 4 4 4 4 3 3 3 4 3 3 3 3 4 4 3 3 3
4 4 6 4 4 4 4 4 4 4 5 5 5 6 7 4 5 5 4 4 4 5 5 5 4 4 4 4 3 4 4 4 3 3 3 3 3 3 3 3 3 3 2
3 4 4 4 4 4 4 4 4 4 5 5 5 6 8 5 4 5 5 5 4 4 4 4 4 4 4 4 4 4 4 4 4 3 3 3 3 3 2 2 2 2 2
4 4 4 4 4 5 5 4 4 4 5 5 5 5 4 4 5 5 5 4 4 4 4 4 4 4 4 4 4 4 4 5 4 3 3 3 3 2 2 3 3 2 2
4 4 5 5 4 4 4 4 4 5 5 5 5 5 5 5 5 5 5 4 4 4 4 4 5 5 6 5 4 4 5 5 4 4 4 4 3 3 2 2 2 3 3
4 4 4 4 5 5 5 5 5 5 5 5 5 5 5 5 5 4 4 4 4 4 4 5 4 5 6 6 6 5 6 6 5 4 3 3 3 3 3 3 2 2 2
4 4 4 4 4 4 5 5 5 5 5 5 5 5 5 5 5 4 4 4 4 4 4 4 5 5 6 5 6 7 7 6 5 4 3 3 3 3 3 2 3 2 2
Wind_Direction
191 186 183 190 189 179 187 198 198 205 198 198 200 193 203 210 205 195 207 205 203 219 226 221 235 236 230 234 224 221 225 222 257 279 266 275 270 279 299 299 295 292 292
200 183 187 185 181 187 200 206 199 203 208 205 201 203 214 216 212 206 213 214 210 220 229 226 236 236 232 236 227 227 232 228 241 275 284 278 269 270 280 287 300 298 293
189 179 188 192 192 202 210 210 203 204 211 210 203 210 220 221 220 219 215 218 218 223 227 227 233 224 236 238 235 234 237 248 241 263 279 280 280 278 284 289 289 292 298
185 186 207 213 208 210 211 211 211 209 211 217 221 222 225 227 224 221 215 222 225 231 234 232 232 227 229 233 237 235 237 245 253 262 275 284 283 276 269 285 298 288 292
201 206 223 223 212 207 212 218 217 216 225 225 226 233 232 230 227 215 214 222 227 238 243 240 238 239 238 239 243 236 229 239 251 263 275 283 283 284 278 278 286 298 289
217 228 223 202 198 211 223 222 226 235 235 230 232 235 240 246 245 245 240 230 233 237 249 252 250 248 252 256 256 252 241 238 243 253 268 271 276 274 274 276 284 302 296
229 233 221 207 212 225 227 221 229 240 243 244 243 239 248 253 255 256 252 243 239 242 244 249 257 252 252 243 255 261 259 257 252 247 256 263 268 263 265 269 265 271 275
232 233 228 219 228 233 232 241 243 235 234 244 250 249 255 261 263 264 264 251 241 244 240 236 241 249 244 239 239 250 252 256 259 252 245 255 259 256 248 256 261 277 278
237 239 235 221 222 231 238 246 249 245 249 249 251 246 254 266 267 269 270 246 248 253 248 237 236 242 255 255 246 251 266 269 274 271 269 269 271 270 264 267 267 276 288
247 244 239 225 224 234 241 249 255 246 251 253 256 249 249 259 265 270 270 242 253 261 258 249 250 250 258 258 240 238 259 268 268 282 280 280 273 267 263 240 234 251 270
260 256 250 235 232 236 242 248 246 250 255 256 259 261 255 258 266 270 272 254 245 254 259 257 251 260 263 261 256 241 255 267 259 258 268 269 268 258 256 250 238 235 242
265 261 258 251 248 245 237 250 243 236 247 256 260 271 265 261 264 267 272 270 261 251 258 258 257 264 266 266 264 259 266 273 259 257 263 263 262 260 255 255 250 248 245
272 268 266 263 257 240 230 239 248 233 238 251 252 263 272 263 263 271 274 277 272 261 257 264 269 270 271 269 265 267 268 255 247 259 262 260 256 251 254 264 265 262 263
271 271 266 259 264 258 244 232 233 234 237 246 250 257 267 269 262 263 264 272 272 272 270 271 275 276 270 268 272 271 253 239 243 253 261 258 256 248 249 246 251 263 272
264 263 261 256 255 261 261 244 239 238 235 241 244 244 252 265 265 269 273 266 256 256 276 275 269 273 261 263 264 259 249 249 253 249 253 257 252 249 255 247 240 246 250
267 266 258 256 259 257 270 291 273 261 266 261 258 256 256 263 279 277 277 276 276 274 279 269 268 265 266 269 267 264 255 250 247 248 249 244 242 244 249 248 246 241 250
254 260 258 251 249 252 255 264 289 298 280 268 265 265 266 273 277 277 278 278 275 274 265 261 265 267 268 268 263 259 260 253 243 243 246 241 240 242 246 250 248 251 254
261 259 256 248 247 248 251 255 259 272 290 290 278 274 276 278 279 277 275 280 276 269 255 260 265 267 269 269 266 264 262 259 249 248 244 238 235 238 241 241 240 247 253
269 262 255 252 248 248 252 256 257 260 267 278 289 287 283 283 282 276 273 259 260 264 263 264 263 265 268 269 268 265 260 256 250 247 241 237 234 233 235 236 238 248 252
272 272 270 258 252 249 247 251 256 259 263 268 273 278 285 284 275 272 260 251 254 261 263 263 264 264 266 268 267 265 266 261 253 244 237 237 231 225 227 230 233 239 246
275 275 275 269 255 250 249 250 252 257 263 268 270 270 274 270 266 265 264 260 257 260 263 264 265 266 263 263 263 262 261 263 257 244 233 229 221 222 224 225 228 231 243
268 270 267 263 262 258 258 255 254 257 261 268 278 279 277 272 264 264 264 265 264 262 260 264 266 264 260 256 255 257 259 259 253 242 229 222 215 216 214 212 217 227 238
263 266 268 266 263 263 266 258 254 255 260 264 270 276 276 268 266 266 265 266 267 266 264 261 266 268 266 265 257 244 248 252 244 229 221 215 212 214 211 212 215 223 240
260 261 263 266 266 260 259 260 257 258 260 263 266 268 268 266 266 265 265 267 267 265 266 267 265 264 266 272 271 260 254 255 246 230 213 206 208 212 207 207 215 225 234
262 263 265 266 265 263 263 262 262 262 262 263 265 268 270 270 269 267 265 263 265 267 269 271 271 270 268 267 271 269 262 258 246 235 213 202 201 204 202 207 216 222 233
265 265 266 266 265 264 263 264 264 262 261 263 263 263 265 267 269 269 265 263 266 270 272 275 272 272 274 274 269 267 269 259 243 230 207 190 192 202 201 210 213 218 222
Height
1475 1476 1477 1478 1478 1479 1480 1480 1481 1481 1481 1481 1481 1481 1482 1482 1483 1483 1483 1483 1483 1483 1483 1483 1483 1483 1483 1483 1483 1482 1482 1481 1479 1477 1476 1476 1475 1474 1473 1473 1471 1470 1468
1473 1473 1474 1475 1475 1476 1477 1477 1478 1478 1478 1478 1478 1478 1478 1479 1479 1480 1480 1480 1480 1480 1480 1479 1479 1479 1479 1478 1478 1477 1477 1476 1475 1473 1471 1471 1470 1469 1468 1467 1466 1465 1463
1470 1471 1471 1472 1473 1473 1474 1474 1474 1474 1474 1474 1474 1474 1475 1475 1475 1475 1475 1475 1475 1475 1475 1475 1475 1474 1474 1474 1473 1472 1472 1471 1471 1469 1466 1466 1465 1464 1463 1462 1461 1459 1458
1468 1468 1468 1469 1469 1470 1470 1471 1471 1470 1470 1470 1470 1470 1471 1471 1471 1471 1471 1471 1470 1470 1470 1470 1470 1469 1469 1469 1468 1467 1467 1466 1466 1464 1462 1461 1460 1459 1458 1456 1454 1454 1452
1465 1465 1465 1466 1466 1466 1467 1467 1467 1466 1467 1467 1466 1466 1466 1466 1466 1466 1466 1466 1466 1465 1465 1465 1465 1464 1464 1464 1463 1463 1462 1461 1460 1459 1457 1456 1455 1454 1453 1451 1449 1448 1447
1461 1461 1462 1462 1462 1462 1463 1462 1462 1462 1462 1462 1462 1462 1462 1462 1462 1461 1461 1461 1461 1460 1460 1459 1459 1459 1459 1459 1458 1458 1457 1456 1455 1454 1453 1451 1450 1449 1448 1447 1445 1443 1441
1458 1458 1458 1458 1459 1458 1458 1458 1458 1458 1458 1458 1458 1457 1457 1457 1457 1457 1456 1456 1455 1455 1454 1454 1454 1454 1453 1453 1453 1452 1452 1451 1451 1450 1448 1446 1445 1444 1443 1442 1440 1439 1437
1455 1455 1455 1455 1455 1455 1454 1454 1454 1453 1453 1453 1453 1453 1453 1452 1452 1452 1451 1451 1450 1450 1449 1449 1448 1448 1448 1447 1447 1446 1446 1445 1445 1444 1443 1442 1441 1439 1438 1437 1436 1434 1432
1451 1451 1451 1451 1450 1450 1450 1450 1449 1449 1449 1449 1448 1448 1448 1448 1448 1447 1447 1446 1445 1444 1444 1444 1443 1443 1443 1442 1442 1441 1440 1439 1439 1438 1437 1436 1435 1434 1433 1432 1430 1429 1426
1447 1447 1447 1446 1446 1446 1446 1445 1445 1445 1444 1444 1444 1444 1443 1443 1443 1442 1442 1441 1440 1439 1439 1438 1438 1438 1437 1437 1436 1435 1434 1433 1433 1432 1431 1430 1430 1429 1428 1427 1426 1424 1422
1443 1443 1442 1442 1442 1441 1441 1441 1441 1440 1440 1440 1439 1439 1439 1438 1438 1438 1437 1436 1435 1434 1433 1433 1433 1433 1432 1432 1431 1430 1429 1429 1427 1426 1425 1424 1424 1423 1422 1422 1421 1419 1418
1439 1438 1438 1437 1437 1437 1437 1436 1436 1436 1435 1435 1434 1434 1434 1434 1433 1432 1432 1432 1431 1430 1429 1428 1428 1428 1427 1427 1426 1425 1425 1424 1422 1421 1420 1418 1418 1417 1417 1416 1415 1414 1413
1435 1434 1434 1433 1433 1433 1432 1432 1432 1431 1431 1430 1430 1429 1429 1429 1429 1428 1428 1427 1426 1426 1425 1424 1423 1423 1422 1421 1421 1420 1419 1418 1417 1416 1414 1413 1413 1412 1411 1410 1410 1409 1408
1430 1430 1429 1429 1429 1429 1428 1428 1427 1427 1427 1426 1426 1425 1425 1424 1424 1423 1423 1422 1422 1421 1420 1419 1418 1417 1417 1416 1415 1414 1414 1413 1412 1410 1409 1408 1408 1407 1406 1405 1404 1403 1402
1427 1426 1426 1425 1425 1425 1424 1424 1423 1423 1423 1422 1421 1421 1420 1419 1419 1419 1418 1417 1417 1416 1415 1414 1413 1412 1411 1410 1409 1409 1408 1407 1406 1405 1404 1403 1402 1401 1401 1400 1399 1398 1397
1423 1422 1422 1422 1421 1421 1420 1420 1419 1419 1419 1418 1417 1417 1416 1416 1415 1414 1414 1413 1412 1412 1411 1409 1408 1407 1406 1405 1404 1403 1403 1402 1401 1400 1399 1398 1397 1397 1396 1395 1395 1394 1393
1420 1419 1418 1418 1417 1417 1416 1416 1415 1415 1414 1414 1413 1412 1412 1411 1410 1410 1409 1408 1408 1407 1406 1404 1403 1402 1401 1400 1399 1398 1397 1396 1396 1394 1394 1393 1393 1392 1391 1391 1390 1389 1388
1416 1415 1415 1414 1413 1413 1413 1412 1411 1410 1409 1408 1409 1408 1407 1406 1406 1405 1404 1404 1402 1401 1400 1399 1399 1398 1397 1395 1394 1393 1392 1391 1390 1389 1389 1388 1388 1388 1387 1386 1386 1385 1384
1412 1411 1411 1410 1409 1409 1408 1408 1407 1407 1406 1404 1404 1403 1403 1402 1401 1401 1400 1399 1398 1397 1396 1395 1394 1393 1392 1391 1390 1388 1387 1386 1385 1385 1384 1384 1384 1383 1383 1382 1382 1381 1381
1409 1408 1407 1406 1405 1405 1404 1404 1403 1402 1401 1401 1400 1399 1398 1397 1396 1396 1395 1394 1393 1392 1391 1390 1389 1388 1387 1386 1385 1384 1383 1382 1381 1380 1380 1380 1380 1379 1379 1379 1378 1378 1377
1405 1404 1403 1402 1401 1401 1400 1400 1399 1398 1397 1397 1396 1395 1394 1393 1392 1391 1391 1390 1389 1388 1387 1386 1385 1384 1383 1382 1381 1380 1379 1378 1377 1377 1376 1376 1376 1375 1375 1375 1375 1375 1374
1401 1399 1399 1398 1397 1397 1396 1396 1395 1394 1393 1392 1391 1391 1390 1389 1388 1387 1386 1386 1385 1384 1383 1382 1380 1379 1378 1378 1376 1376 1375 1374 1374 1373 1373 1372 1372 1372 1372 1372 1372 1372 1371
1396 1395 1394 1394 1393 1392 1392 1391 1391 1390 1389 1388 1387 1386 1385 1384 1384 1383 1382 1381 1380 1379 1378 1377 1376 1375 1374 1373 1372 1372 1371 1370 1370 1370 1369 1369 1369 1369 1369 1369 1369 1369 1368
1392 1391 1390 1389 1389 1388 1387 1386 1386 1385 1384 1384 1383 1382 1381 1380 1379 1378 1377 1377 1376 1375 1374 1373 1372 1371 1370 1369 1369 1368 1367 1367 1367 1367 1367 1366 1366 1366 1367 1367 1366 1366 1366
1388 1387 1386 1385 1384 1383 1382 1382 1381 1380 1380 1379 1378 1377 1376 1376 1375 1374 1373 1373 1372 1371 1370 1369 1368 1367 1367 1366 1365 1364 1364 1364 1364 1364 1364 1364 1364 1364 1364 1364 1364 1364 1363
1384 1382 1381 1380 1379 1379 1378 1377 1376 1376 1375 1375 1374 1373 1372 1371 1371 1370 1369 1369 1368 1367 1366 1366 1365 1364 1363 1362 1362 1361 1361 1361 1361 1362 1362 1362 1362 1362 1362 1362 1362 1361 1361